DW1298 Weather Reports


Display with metric or nautical units.
time (UTC)temp
F
wind
direction
speed
MPH
gust
MPH
rain 1hr
in
rain 24hr
in
rain mn
in
humidity
%
barometer
mb
20220518124548 76 0 1.0 9.0 0.00 0.00 0.00 77 1018.5
20220518124038 76 176 0.0 9.0 0.00 0.00 0.00 77 1018.6
20220518123539 77 185 0.0 8.0 0.00 0.00 0.00 75 1018.6
20220518123047 77 0 0.0 1.0 0.00 0.00 0.00 76 1018.5
20220518122537 77 0 0.0 6.0 0.00 0.00 0.00 77 1018.6
20220518122038 77 0 0.0 6.0 0.00 0.00 0.00 77 1018.6
20220518121657 76 0 0.0 6.0 0.00 0.00 0.00 78 1018.7
20220518121034 76 0 0.0 6.0 0.00 0.00 0.00 79 1018.6
20220518120541 76 165 0.0 6.0 0.00 0.00 0.00 78 1018.6
20220518120049 76 0 0.0 7.0 0.00 0.00 0.00 78 1018.5
20220518115537 75 0 0.0 7.0 0.00 0.00 0.00 80 1018.6
20220518115036 74 180 0.0 8.0 0.00 0.00 0.00 81 1018.5
20220518114546 75 0 0.0 8.0 0.00 0.00 0.00 79 1018.6
20220518114040 75 165 1.0 7.0 0.00 0.00 0.00 77 1018.6
20220518113542 75 0 0.0 7.0 0.00 0.00 0.00 77 1018.7
20220518113049 75 0 0.0 5.0 0.00 0.00 0.00 78 1018.8
20220518112539 75 0 0.0 5.0 0.00 0.00 0.00 78 1018.8
20220518112043 75 0 0.0 5.0 0.00 0.00 0.00 79 1018.8
20220518111548 75 0 0.0 6.0 0.00 0.00 0.00 78 1018.7
20220518111036 75 0 0.0 6.0 0.00 0.00 0.00 79 1018.7
20220518110538 75 0 1.0 6.0 0.00 0.00 0.00 78 1018.8
20220518110101 76 171 0.0 1.0 0.00 0.00 0.00 78 1018.9
20220518105539 76 0 0.0 1.0 0.00 0.00 0.00 79 1019.1
20220518105041 75 0 0.0 1.0 0.00 0.00 0.00 79 1019.1
20220518104613 75 0 0.0 6.0 0.00 0.00 0.00 80 1019.1
20220518104038 75 0 0.0 6.0 0.00 0.00 0.00 82 1019.1
20220518103538 74 0 0.0 6.0 0.00 0.00 0.00 82 1019.1
20220518103058 73 0 0.0 2.0 0.00 0.00 0.00 83 1019.1
20220518102538 73 0 0.0 1.0 0.00 0.00 0.00 84 1019.1
20220518102040 73 0 0.0 1.0 0.00 0.00 0.00 85 1019.2
20220518101613 72 0 0.0 3.0 0.00 0.00 0.00 86 1019.0
20220518101040 72 0 0.0 7.0 0.00 0.00 0.00 85 1019.1
20220518100546 72 0 0.0 8.0 0.00 0.00 0.00 85 1019.2
20220518100101 72 0 1.0 9.0 0.00 0.00 0.00 86 1019.4
20220518095541 72 0 1.0 9.0 0.00 0.00 0.00 86 1019.4
20220518095039 71 0 0.0 7.0 0.00 0.00 0.00 86 1019.4
20220518094604 71 0 0.0 7.0 0.00 0.00 0.00 86 1019.4
20220518094039 71 0 1.0 7.0 0.00 0.00 0.00 86 1019.5
20220518093539 71 0 0.0 6.0 0.00 0.00 0.00 87 1019.4
20220518093043 71 0 0.0 5.0 0.00 0.00 0.00 87 1019.4
20220518092538 71 0 0.0 6.0 0.00 0.00 0.00 87 1019.4
20220518092041 71 0 0.0 6.0 0.00 0.00 0.00 87 1019.3
20220518091547 71 0 0.0 6.0 0.00 0.00 0.00 87 1019.3
20220518091041 71 192 0.0 5.0 0.00 0.00 0.00 87 1019.3
20220518090538 71 0 0.0 4.0 0.00 0.00 0.00 87 1019.3
20220518090055 71 0 0.0 7.0 0.00 0.00 0.00 87 1019.2
20220518085540 71 0 1.0 7.0 0.00 0.00 0.00 88 1019.2
20220518085040 71 0 0.0 7.0 0.00 0.00 0.00 88 1019.2
20220518084600 70 195 0.0 7.0 0.00 0.00 0.00 87 1019.2
20220518084039 71 0 0.0 2.0 0.00 0.00 0.00 87 1019.3
20220518083540 70 0 0.0 2.0 0.00 0.00 0.00 87 1019.2
20220518083052 70 0 0.0 0.0 0.00 0.00 0.00 87 1019.2
20220518082540 70 0 0.0 5.0 0.00 0.00 0.00 87 1019.1
20220518082038 70 0 0.0 6.0 0.00 0.00 0.00 87 1019.0
20220518081613 70 0 1.0 7.0 0.00 0.00 0.00 86 1019.0
20220518081049 70 179 1.0 7.0 0.00 0.00 0.00 86 1019.2
20220518080540 71 0 0.0 5.0 0.00 0.00 0.00 87 1019.0
20220518080048 71 0 0.0 5.0 0.00 0.00 0.00 86 1019.1
20220518075539 71 0 0.0 0.0 0.00 0.00 0.00 86 1019.0
20220518075036 71 0 0.0 0.0 0.00 0.00 0.00 86 1019.2
20220518074550 71 0 0.0 0.0 0.00 0.00 0.00 86 1019.0
20220518074040 71 0 0.0 0.0 0.00 0.00 0.00 87 1019.0
20220518073536 71 0 0.0 0.0 0.00 0.00 0.00 86 1019.1
20220518073109 70 0 0.0 0.0 0.00 0.00 0.00 86 1019.1
20220518072538 71 0 0.0 0.0 0.00 0.00 0.00 86 1018.9
20220518072036 70 0 0.0 0.0 0.00 0.00 0.00 86 1018.9
20220518071551 70 0 0.0 0.0 0.00 0.00 0.00 86 1019.0
20220518071036 70 0 0.0 0.0 0.00 0.00 0.00 85 1018.9
20220518070537 70 0 0.0 0.0 0.00 0.00 0.00 85 1018.8
20220518070058 70 0 0.0 0.0 0.00 0.00 0.00 85 1018.9
20220518065536 70 0 0.0 0.0 0.00 0.00 0.00 84 1018.8
20220518065037 70 0 0.0 0.0 0.00 0.00 0.00 84 1018.8
20220518064557 70 0 0.0 0.0 0.00 0.00 0.00 84 1018.7
20220518064036 69 0 0.0 0.0 0.00 0.00 0.00 83 1018.7
20220518063537 69 0 0.0 0.0 0.00 0.00 0.00 83 1018.8
20220518063055 69 0 0.0 0.0 0.00 0.00 0.00 84 1018.8
20220518062535 69 0 0.0 0.0 0.00 0.00 0.00 84 1018.8
20220518062036 69 0 0.0 0.0 0.00 0.00 0.00 84 1018.7
20220518061603 69 0 0.0 0.0 0.00 0.00 0.00 85 1018.5
20220518061037 69 0 0.0 0.0 0.00 0.00 0.00 85 1018.6
20220518060539 68 0 0.0 0.0 0.00 0.00 0.00 86 1018.6
20220518060104 68 0 0.0 0.0 0.00 0.00 0.00 86 1018.7
20220518055536 68 0 0.0 0.0 0.00 0.00 0.00 87 1018.7
20220518055036 68 0 0.0 0.0 0.00 0.00 0.00 87 1018.6
20220518054556 67 0 0.0 0.0 0.00 0.00 0.00 88 1018.6
20220518054035 67 0 0.0 0.0 0.00 0.00 0.00 88 1018.6
20220518053538 67 0 0.0 0.0 0.00 0.00 0.00 88 1018.5
20220518053101 67 0 0.0 0.0 0.00 0.00 0.00 89 1018.5
20220518052538 67 0 0.0 0.0 0.00 0.00 0.00 89 1018.5
20220518052037 66 0 0.0 0.0 0.00 0.00 0.00 89 1018.6
20220518051546 66 0 0.0 0.0 0.00 0.00 0.00 89 1018.4
20220518051036 66 0 0.0 0.0 0.00 0.00 0.00 89 1018.3
20220518050536 66 0 0.0 0.0 0.00 0.00 0.00 89 1018.3
20220518050101 66 0 0.0 0.0 0.00 0.00 0.00 89 1018.2
20220518045535 66 0 0.0 0.0 0.00 0.00 0.00 90 1018.1
20220518045037 66 0 0.0 0.0 0.00 0.00 0.00 90 1018.2
20220518044548 66 0 0.0 0.0 0.00 0.00 0.00 90 1018.1
20220518044038 66 0 0.0 1.0 0.00 0.00 0.00 90 1018.0
20220518043541 66 0 0.0 1.0 0.00 0.00 0.00 91 1018.0
20220518043046 66 0 0.0 1.0 0.00 0.00 0.00 91 1018.0
20220518042542 66 0 0.0 0.0 0.00 0.00 0.00 91 1018.0
20220518042039 66 0 0.0 0.0 0.00 0.00 0.00 91 1017.9
20220518041549 66 0 0.0 0.0 0.00 0.00 0.00 91 1017.9
20220518041039 66 0 0.0 0.0 0.00 0.00 0.00 92 1017.8
20220518040537 66 0 0.0 0.0 0.00 0.00 0.00 92 1017.9
20220518040051 66 0 0.0 0.0 0.00 0.00 0.00 92 1017.8
20220518035539 66 0 0.0 0.0 0.00 0.00 0.00 92 1017.9
20220518035039 66 0 0.0 0.0 0.00 0.00 0.00 92 1017.9
20220518034544 66 0 0.0 0.0 0.00 0.00 0.00 92 1017.9
20220518034040 66 0 0.0 0.0 0.00 0.00 0.00 92 1018.0
20220518033538 66 0 0.0 0.0 0.00 0.00 0.00 92 1017.9
20220518033107 66 0 0.0 0.0 0.00 0.00 0.00 92 1017.9
20220518032546 66 0 0.0 0.0 0.00 0.00 0.00 92 1017.9
20220518032036 66 0 0.0 0.0 0.00 0.00 0.00 92 1018.0
20220518031544 66 0 0.0 0.0 0.00 0.00 0.00 93 1017.9
20220518031036 66 0 0.0 0.0 0.00 0.00 0.00 93 1018.0
20220518030539 66 0 0.0 0.0 0.00 0.00 0.00 93 1018.0
20220518030048 66 0 0.0 0.0 0.00 0.00 0.00 93 1017.9
20220518025539 66 0 0.0 0.0 0.00 0.00 0.00 93 1018.0
20220518025039 66 0 0.0 0.0 0.00 0.00 0.00 93 1017.9
20220518024547 66 0 0.0 0.0 0.00 0.00 0.00 93 1017.9
20220518024040 66 0 0.0 0.0 0.00 0.00 0.00 93 1018.0
20220518023536 66 0 0.0 0.0 0.00 0.00 0.00 93 1018.1
20220518023048 66 0 0.0 0.0 0.00 0.00 0.00 93 1018.0
20220518022543 66 0 0.0 0.0 0.00 0.00 0.00 94 1018.0
20220518022042 66 0 0.0 0.0 0.00 0.00 0.00 93 1018.1
20220518021554 67 0 0.0 0.0 0.00 0.00 0.00 93 1018.0
20220518021043 67 0 0.0 0.0 0.00 0.00 0.00 93 1018.0
20220518020540 67 0 0.0 0.0 0.00 0.00 0.00 93 1018.0
20220518020048 67 0 0.0 0.0 0.00 0.00 0.00 93 1018.1
20220518015536 67 0 0.0 0.0 0.00 0.00 0.00 94 1018.0
20220518015037 67 0 0.0 0.0 0.00 0.00 0.00 94 1018.2
20220518014543 67 0 0.0 0.0 0.00 0.00 0.00 94 1018.0
20220518014040 67 0 0.0 0.0 0.00 0.00 0.00 94 1018.1
20220518013540 67 0 0.0 2.0 0.00 0.00 0.00 94 1018.2
20220518013043 67 0 0.0 2.0 0.00 0.00 0.00 94 1018.1
20220518012539 67 0 0.0 0.0 0.00 0.00 0.00 94 1018.2
20220518012036 67 0 0.0 0.0 0.00 0.00 0.00 94 1018.1
20220518011551 67 0 0.0 0.0 0.00 0.00 0.00 94 1018.2
20220518011040 67 0 0.0 0.0 0.00 0.00 0.00 94 1018.2
20220518010540 67 0 0.0 0.0 0.00 0.00 0.00 94 1018.2
20220518010054 67 0 0.0 0.0 0.00 0.00 0.00 94 1018.3
20220518005546 67 0 0.0 0.0 0.00 0.00 0.00 94 1018.3
20220518005037 67 0 0.0 4.0 0.00 0.00 0.00 94 1018.3
20220518004544 67 0 0.0 4.0 0.00 0.00 0.00 94 1018.2
20220518004039 67 0 0.0 0.0 0.00 0.00 0.00 94 1018.4
20220518003537 67 0 0.0 0.0 0.00 0.00 0.00 93 1018.5
20220518003046 67 0 0.0 0.0 0.00 0.00 0.00 93 1018.5
20220518002540 67 0 0.0 1.0 0.00 0.00 0.00 93 1018.6
20220518002038 67 0 0.0 1.0 0.00 0.00 0.00 93 1018.6
20220518001548 67 0 0.0 0.0 0.00 0.00 0.00 93 1018.5
20220518001039 67 0 0.0 0.0 0.00 0.00 0.00 93 1018.5
20220518000539 67 0 0.0 0.0 0.00 0.00 0.00 93 1018.4
20220518000048 67 0 0.0 0.0 0.00 0.00 0.00 93 1018.6
20220517235539 68 0 0.0 0.0 0.00 0.00 0.00 93 1018.5
20220517235036 68 0 0.0 0.0 0.00 0.00 0.00 93 1018.3
20220517234553 68 0 0.0 0.0 0.00 0.00 0.00 93 1018.4
20220517234041 68 0 0.0 0.0 0.00 0.00 0.00 93 1018.3
20220517233539 67 0 0.0 0.0 0.00 0.00 0.00 93 1018.3
20220517233047 68 0 0.0 0.0 0.00 0.00 0.00 93 1018.3
20220517232541 68 0 0.0 0.0 0.00 0.00 0.00 93 1018.2
20220517232040 67 0 0.0 0.0 0.00 0.00 0.00 93 1018.3
20220517231556 67 0 0.0 0.0 0.00 0.00 0.00 93 1018.3
20220517231040 67 0 0.0 0.0 0.00 0.00 0.00 93 1018.3
20220517230544 67 0 0.0 0.0 0.00 0.00 0.00 93 1018.3
20220517230055 67 0 0.0 0.0 0.00 0.00 0.00 93 1018.3
20220517225540 67 0 0.0 0.0 0.00 0.00 0.00 93 1018.2
20220517225040 67 0 0.0 0.0 0.00 0.00 0.00 93 1018.3
20220517224554 67 0 0.0 0.0 0.00 0.00 0.00 93 1018.3
20220517224039 67 0 0.0 0.0 0.00 0.00 0.00 93 1018.5
20220517223540 67 0 0.0 0.0 0.00 0.00 0.00 93 1018.4
20220517223105 67 0 0.0 0.0 0.00 0.00 0.00 93 1018.3
20220517222545 67 0 0.0 0.0 0.00 0.00 0.00 93 1018.5
20220517222039 67 0 0.0 0.0 0.00 0.00 0.00 93 1018.5
20220517221556 67 0 0.0 0.0 0.00 0.00 0.00 93 1018.4
20220517221039 67 0 0.0 0.0 0.00 0.00 0.00 93 1018.5
20220517220536 67 0 0.0 0.0 0.00 0.00 0.00 93 1018.5
20220517220051 67 0 0.0 0.0 0.00 0.00 0.00 92 1018.5
20220517215539 67 0 0.0 0.0 0.00 0.00 0.00 92 1018.5
20220517215038 67 0 0.0 0.0 0.00 0.00 0.00 93 1018.5
20220517214545 68 0 0.0 0.0 0.00 0.00 0.00 93 1018.4
20220517214040 68 0 0.0 0.0 0.00 0.00 0.00 93 1018.5
20220517213540 68 0 0.0 0.0 0.00 0.00 0.00 92 1018.5
20220517213046 68 0 0.0 0.0 0.00 0.00 0.00 92 1018.4
20220517212541 68 0 0.0 0.0 0.00 0.00 0.00 92 1018.5
20220517212042 68 0 0.0 0.0 0.00 0.00 0.00 92 1018.5
20220517211554 68 0 0.0 0.0 0.00 0.00 0.00 92 1018.6
20220517211040 68 0 0.0 0.0 0.00 0.00 0.00 92 1018.6
20220517210541 68 0 0.0 0.0 0.00 0.00 0.00 92 1018.6
20220517210043 68 0 0.0 0.0 0.00 0.00 0.00 92 1018.6
20220517205539 68 0 0.0 0.0 0.00 0.00 0.00 92 1018.6
20220517205041 68 0 0.0 0.0 0.00 0.00 0.00 92 1018.5
20220517204547 68 0 0.0 0.0 0.00 0.00 0.00 92 1018.6
20220517204040 68 0 0.0 0.0 0.00 0.00 0.00 92 1018.5
20220517203538 68 0 0.0 0.0 0.00 0.00 0.00 92 1018.5
20220517203055 68 0 0.0 0.0 0.00 0.00 0.00 92 1018.5
20220517202539 68 0 0.0 0.0 0.00 0.00 0.00 91 1018.4
20220517202040 68 0 0.0 0.0 0.00 0.00 0.00 92 1018.4
20220517201546 68 0 0.0 0.0 0.00 0.00 0.00 92 1018.3
20220517201039 68 0 0.0 3.0 0.00 0.00 0.00 92 1018.3
20220517200540 68 0 0.0 3.0 0.00 0.00 0.00 91 1018.3
20220517200051 68 0 0.0 2.0 0.00 0.00 0.00 91 1018.1
20220517195536 68 0 0.0 0.0 0.00 0.00 0.00 91 1018.2
20220517195045 69 0 0.0 0.0 0.00 0.00 0.00 91 1018.0
20220517194551 69 0 0.0 0.0 0.00 0.00 0.00 91 1018.0
20220517194043 69 0 0.0 0.0 0.00 0.00 0.00 91 1017.9
20220517193544 69 0 0.0 0.0 0.00 0.00 0.00 91 1017.9
20220517193110 69 0 0.0 0.0 0.00 0.00 0.00 91 1017.9
20220517192539 69 0 0.0 1.0 0.00 0.00 0.00 91 1017.8
20220517192039 69 0 0.0 4.0 0.00 0.00 0.00 91 1017.7
20220517191602 69 0 0.0 4.0 0.00 0.00 0.00 91 1017.7
20220517191040 69 134 0.0 3.0 0.00 0.00 0.00 91 1017.7
20220517190545 69 0 0.0 3.0 0.00 0.00 0.00 90 1017.7
20220517190121 69 0 0.0 3.0 0.00 0.00 0.00 90 1017.7
20220517185539 69 0 0.0 1.0 0.00 0.00 0.00 90 1017.7
20220517185039 69 0 0.0 1.0 0.00 0.00 0.00 90 1017.6
20220517184551 69 0 0.0 2.0 0.00 0.00 0.00 90 1017.6
20220517184036 69 0 0.0 3.0 0.00 0.00 0.00 89 1017.5
20220517183539 70 0 0.0 3.0 0.00 0.00 0.00 89 1017.4
20220517183054 70 0 0.0 1.0 0.00 0.00 0.00 89 1017.4
20220517182540 70 0 0.0 4.0 0.00 0.00 0.00 89 1017.2
20220517182041 70 0 0.0 6.0 0.00 0.00 0.00 88 1017.2
20220517181555 70 0 1.0 7.0 0.00 0.00 0.00 88 1017.2
20220517181039 70 177 2.0 7.0 0.00 0.00 0.00 87 1017.0
20220517180538 71 175 2.0 6.0 0.00 0.00 0.00 87 1017.0
20220517180055 71 0 0.0 5.0 0.00 0.00 0.00 86 1017.0
20220517175539 71 0 0.0 4.0 0.00 0.00 0.00 86 1017.0
20220517175039 71 0 0.0 4.0 0.00 0.00 0.00 86 1017.0
20220517174542 72 0 0.0 2.0 0.00 0.00 0.00 86 1017.0
20220517174038 72 0 0.0 1.0 0.00 0.00 0.00 86 1017.1
20220517173539 72 0 0.0 1.0 0.00 0.00 0.00 86 1017.1
20220517173053 72 0 0.0 2.0 0.00 0.00 0.00 86 1017.0
20220517172537 72 0 0.0 6.0 0.00 0.00 0.00 86 1017.0
20220517172039 72 217 0.0 6.0 0.00 0.00 0.00 86 1017.0
20220517171556 72 0 0.0 3.0 0.00 0.00 0.00 86 1017.1
20220517171039 72 0 0.0 3.0 0.00 0.00 0.00 86 1016.9
20220517170539 72 0 0.0 1.0 0.00 0.00 0.00 87 1017.1
20220517170054 71 0 0.0 3.0 0.00 0.00 0.00 87 1017.1
20220517165541 71 182 0.0 3.0 0.00 0.00 0.00 87 1017.2